N3AVN Weather Reports


time (UTC)temp
C
wind
direction
speed
KPH
gust
KPH
rain 1hr
cm
rain 24hr
cm
rain mn
cm
humidity
%
barometer
mb
20260504151010 18 228 3.2 8.0 0.00 0.00 0.00 37 1009.1
20260504150507 18 149 19.3 19.3 0.00 0.00 0.00 36 1009.4
20260504140927 17 303 9.7 17.7 0.00 0.00 0.00 39 1009.7
20260504140424 17 8 0.0 17.7 0.00 0.00 0.00 37 1009.8
20260504130349 15 201 3.2 16.1 0.00 0.00 0.00 42 1010.4
20260504120311 13 52 3.2 4.8 0.00 0.00 0.00 51 1010.5
20260504110235 7 111 0.0 3.2 0.00 0.00 0.00 68 1010.9
20260504100159 5 251 11.3 11.3 0.00 0.00 0.00 72 1010.8
20260504090117 5 198 1.6 6.4 0.00 0.00 0.00 75 1010.3
20260504081547 5 206 0.0 4.8 0.00 0.00 0.00 75 1010.2
20260504081043 5 242 6.4 6.4 0.00 0.00 0.00 74 1010.2
20260504080540 5 206 3.2 8.0 0.00 0.00 0.00 75 1010.3
20260504050347 3 102 0.0 0.0 0.00 0.00 0.00 82 1010.2
20260504045844 3 120 0.0 0.0 0.00 0.00 0.00 82 1010.2
20260504045343 2 157 1.6 1.6 0.00 0.00 0.00 82 1010.3
20260504044841 2 194 0.0 1.6 0.00 0.00 0.00 82 1010.5
20260504044338 2 111 0.0 1.6 0.00 0.00 0.00 82 1010.4
20260504043836 2 151 0.0 1.6 0.00 0.00 0.00 82 1010.5
20260504043332 3 120 0.0 3.2 0.00 0.00 0.00 81 1010.3
20260504042830 3 114 0.0 0.0 0.00 0.00 0.00 81 1010.4
20260504042326 3 114 0.0 0.0 0.00 0.00 0.00 79 1010.3
20260504041822 3 111 0.0 0.0 0.00 0.00 0.00 79 1010.2
20260504041318 3 111 0.0 0.0 0.00 0.00 0.00 79 1010.4
20260504040815 3 111 0.0 3.2 0.00 0.00 0.00 78 1010.1
20260504040313 3 120 0.0 1.6 0.00 0.00 0.00 79 1010.2
20260504035808 3 114 0.0 1.6 0.00 0.00 0.00 78 1010.3
20260504035306 3 109 1.6 3.2 0.00 0.00 0.00 78 1010.4
20260504034803 3 106 0.0 1.6 0.00 0.00 0.00 79 1010.2
20260504034300 3 69 0.0 0.0 0.00 0.00 0.00 79 1010.3
20260504033757 3 69 0.0 0.0 0.00 0.00 0.00 78 1010.2
20260504033255 3 180 0.0 0.0 0.00 0.00 0.00 78 1010.2
20260504032751 3 180 0.0 0.0 0.00 0.00 0.00 77 1009.8
20260504032249 3 180 0.0 1.6 0.00 0.00 0.00 78 1010.1
20260504031745 4 127 0.0 0.0 0.00 0.00 0.00 76 1010.1
20260504031243 4 127 0.0 0.0 0.00 0.00 0.00 75 1010.1
20260504030738 4 127 0.0 0.0 0.00 0.00 0.00 75 1010.2
20260504030236 5 127 0.0 1.6 0.00 0.00 0.00 74 1009.8
20260504025732 5 106 0.0 1.6 0.00 0.00 0.00 74 1009.7
20260504025229 5 106 0.0 0.0 0.00 0.00 0.00 74 1010.1
20260504024726 5 203 0.0 0.0 0.00 0.00 0.00 74 1009.8
20260504024223 5 195 0.0 0.0 0.00 0.00 0.00 73 1010.0
20260504023720 5 114 0.0 0.0 0.00 0.00 0.00 71 1009.8
20260504023215 5 114 0.0 0.0 0.00 0.00 0.00 71 1009.9
20260504022712 5 114 0.0 1.6 0.00 0.00 0.00 71 1009.8
20260504022208 5 105 0.0 0.0 0.00 0.00 0.00 71 1009.7
20260504021706 5 105 0.0 1.6 0.00 0.00 0.00 71 1009.8
20260504021202 5 20 0.0 0.0 0.00 0.00 0.00 69 1009.6
20260504020659 6 20 0.0 0.0 0.00 0.00 0.00 67 1009.6
20260504020155 6 20 0.0 0.0 0.00 0.00 0.00 67 1009.4
20260504015652 6 165 0.0 0.0 0.00 0.00 0.00 67 1009.6
20260504015148 6 194 0.0 3.2 0.00 0.00 0.00 66 1009.5
20260504014644 6 187 1.6 1.6 0.00 0.00 0.00 65 1009.6
20260504014142 6 157 0.0 0.0 0.00 0.00 0.00 65 1009.5
20260504013639 6 195 0.0 0.0 0.00 0.00 0.00 64 1009.6
20260504013136 6 114 0.0 0.0 0.00 0.00 0.00 64 1009.4
20260504012633 6 114 0.0 0.0 0.00 0.00 0.00 61 1009.3
20260504012131 6 105 0.0 0.0 0.00 0.00 0.00 60 1009.4
20260504011628 6 105 0.0 0.0 0.00 0.00 0.00 60 1009.3
20260504011124 7 160 0.0 1.6 0.00 0.00 0.00 62 1009.1
20260504010620 7 154 0.0 0.0 0.00 0.00 0.00 61 1009.1
20260504010116 7 154 0.0 0.0 0.00 0.00 0.00 59 1009.1
20260504005613 7 154 0.0 0.0 0.00 0.00 0.00 61 1008.9
20260504005110 7 154 0.0 0.0 0.00 0.00 0.00 60 1008.8
20260504004608 7 154 0.0 0.0 0.00 0.00 0.00 59 1008.8
20260504004105 7 154 0.0 0.0 0.00 0.00 0.00 61 1008.6
20260504003556 7 154 0.0 0.0 0.00 0.00 0.00 59 1008.6
20260504003053 7 154 0.0 0.0 0.00 0.00 0.00 60 1008.6
20260504002549 7 154 0.0 0.0 0.00 0.00 0.00 56 1008.5
20260504002047 7 154 0.0 0.0 0.00 0.00 0.00 55 1008.4
20260504001545 8 154 0.0 0.0 0.00 0.00 0.00 53 1008.2
20260504001040 8 154 0.0 0.0 0.00 0.00 0.00 53 1008.2
20260504000538 8 206 1.6 3.2 0.00 0.00 0.00 50 1008.2
20260504000035 8 254 0.0 3.2 0.00 0.00 0.00 52 1008.0
20260503235534 9 0 0.0 0.0 0.00 0.00 0.00 50 1008.0
20260503235030 10 151 1.6 3.2 0.00 0.00 0.00 47 1008.2
20260503234527 10 353 0.0 0.0 0.00 0.00 0.00 47 1007.9
20260503234026 10 90 0.0 1.6 0.00 0.00 0.00 46 1008.0
20260503233521 10 145 0.0 3.2 0.00 0.00 0.00 46 1007.9
20260503233018 10 270 0.0 0.0 0.00 0.00 0.00 44 1007.7
20260503232515 11 66 0.0 3.2 0.00 0.00 0.00 38 1007.9
20260503232012 11 180 0.0 0.0 0.00 0.00 0.00 40 1007.9
20260503231510 11 286 0.0 3.2 0.00 0.00 0.00 39 1007.9
20260503231007 11 303 1.6 8.0 0.00 0.00 0.00 39 1007.7
20260503230503 11 263 1.6 3.2 0.00 0.00 0.00 38 1007.9
20260503230001 12 254 0.0 3.2 0.00 0.00 0.00 38 1007.7
20260503225457 12 247 4.8 8.0 0.00 0.00 0.00 36 1007.8
20260503224952 12 344 4.8 6.4 0.00 0.00 0.00 37 1007.6
20260503224450 12 319 3.2 9.7 0.00 0.00 0.00 36 1007.8
20260503223948 12 246 0.0 9.7 0.00 0.00 0.00 36 1007.6
20260503223445 12 214 4.8 8.0 0.00 0.00 0.00 36 1008.0
20260503222941 12 11 3.2 12.9 0.00 0.00 0.00 36 1007.6
20260503222440 13 301 3.2 4.8 0.00 0.00 0.00 35 1007.8
20260503221937 13 318 4.8 4.8 0.00 0.00 0.00 34 1007.4
20260503221435 13 315 4.8 8.0 0.00 0.00 0.00 36 1007.8
20260503220932 13 195 1.6 4.8 0.00 0.00 0.00 36 1007.6
20260503220428 13 8 4.8 11.3 0.00 0.00 0.00 34 1007.5
20260503215925 13 0 0.0 6.4 0.00 0.00 0.00 35 1007.6
20260503215422 12 270 0.0 11.3 0.00 0.00 0.00 36 1007.8
20260503214920 13 6 6.4 12.9 0.00 0.00 0.00 36 1007.8
20260503214417 13 358 6.4 9.7 0.00 0.00 0.00 37 1007.6
20260503213915 13 23 0.0 9.7 0.00 0.00 0.00 37 1007.6
20260503213412 13 322 8.0 16.1 0.00 0.00 0.00 36 1007.7
20260503212909 13 327 3.2 9.7 0.00 0.00 0.00 36 1007.6
20260503212406 12 313 4.8 11.3 0.00 0.00 0.00 36 1007.6
20260503211904 12 221 3.2 9.7 0.00 0.00 0.00 36 1007.6
20260503211400 12 322 9.7 24.1 0.00 0.00 0.00 37 1007.7
20260503210855 12 332 3.2 16.1 0.00 0.00 0.00 38 1007.5
20260503210353 13 320 3.2 20.9 0.00 0.00 0.00 36 1007.7
20260503205853 13 321 6.4 8.0 0.00 0.00 0.00 36 1007.6
20260503205350 13 82 8.0 16.1 0.00 0.00 0.00 35 1007.6
20260503204846 13 180 0.0 8.0 0.00 0.00 0.00 37 1007.5
20260503204344 13 35 1.6 8.0 0.00 0.00 0.00 38 1007.8
20260503203841 13 114 4.8 14.5 0.00 0.00 0.00 38 1007.6
20260503203338 13 24 8.0 16.1 0.00 0.00 0.00 36 1007.5
20260503202835 13 276 1.6 9.7 0.00 0.00 0.00 36 1007.7
20260503202333 13 345 3.2 11.3 0.00 0.00 0.00 37 1007.5
20260503201832 12 233 8.0 32.2 0.00 0.00 0.00 35 1007.7
20260503201328 13 299 3.2 29.0 0.00 0.00 0.00 37 1007.8
20260503200826 13 315 6.4 19.3 0.00 0.00 0.00 34 1007.5
20260503200321 13 308 20.9 29.0 0.00 0.00 0.00 36 1007.7
20260503195819 12 314 9.7 16.1 0.00 0.00 0.00 37 1007.6
20260503195315 12 299 9.7 32.2 0.00 0.00 0.00 37 1007.5
20260503194813 13 300 1.6 17.7 0.00 0.00 0.00 35 1007.4
20260503194308 13 318 14.5 14.5 0.00 0.00 0.00 36 1007.4
20260503193805 12 343 12.9 24.1 0.00 0.00 0.00 37 1007.8
20260503193301 12 340 4.8 20.9 0.00 0.00 0.00 37 1007.5
20260503192757 12 335 0.0 14.5 0.00 0.00 0.00 40 1007.6
20260503192252 12 266 3.2 12.9 0.00 0.00 0.00 38 1007.6
20260503191749 12 1 17.7 24.1 0.00 0.00 0.00 37 1007.4
20260503191246 12 109 1.6 22.5 0.00 0.00 0.00 38 1007.5
20260503190743 11 26 11.3 17.7 0.00 0.00 0.00 37 1007.7
20260503190239 12 254 8.0 19.3 0.00 0.00 0.00 36 1007.5
20260503185731 13 318 4.8 9.7 0.00 0.00 0.00 37 1007.6
20260503185226 12 311 6.4 14.5 0.00 0.00 0.00 36 1007.4
20260503184722 13 330 4.8 16.1 0.00 0.00 0.00 37 1007.5
20260503184218 12 240 20.9 27.4 0.00 0.00 0.00 37 1007.6
20260503183715 12 128 11.3 19.3 0.00 0.00 0.00 40 1007.6
20260503183212 12 336 11.3 14.5 0.00 0.00 0.00 37 1007.7
20260503182710 12 346 3.2 19.3 0.00 0.00 0.00 36 1007.5
20260503182209 11 339 4.8 16.1 0.00 0.00 0.00 38 1007.4
20260503181704 11 338 6.4 32.2 0.00 0.00 0.00 37 1007.4
20260503181202 12 22 6.4 9.7 0.00 0.00 0.00 39 1007.6
20260503180658 12 342 6.4 20.9 0.00 0.00 0.00 36 1007.4
20260503180156 11 352 4.8 20.9 0.00 0.00 0.00 38 1007.3
20260503175653 12 10 14.5 16.1 0.00 0.00 0.00 39 1007.4
20260503175151 12 356 3.2 29.0 0.00 0.00 0.00 38 1007.5
20260503174646 12 315 3.2 27.4 0.00 0.00 0.00 37 1007.3
20260503174144 13 320 6.4 9.7 0.00 0.00 0.00 40 1007.5
20260503173639 12 0 3.2 11.3 0.00 0.00 0.00 42 1007.7
20260503173135 11 342 9.7 16.1 0.00 0.00 0.00 38 1007.9
20260503172632 12 95 4.8 8.0 0.00 0.00 0.00 42 1007.8
20260503172129 11 319 6.4 9.7 0.00 0.00 0.00 42 1007.9
20260503171625 11 28 6.4 19.3 0.00 0.00 0.00 41 1007.9
20260503171123 11 32 4.8 22.5 0.00 0.00 0.00 42 1007.7
20260503170620 11 2 4.8 17.7 0.00 0.00 0.00 40 1007.5
20260503170116 12 305 4.8 12.9 0.00 0.00 0.00 39 1007.6